Regional Weather Roundup
Issued by NWS Goodland, KS

Home | Current Version | Previous Version | Graphics & Text | Print | Product List | Glossary On
Versions: 1 2 3 4 5 6 7 8 9 10 11 12 13 14 15 16 17 18 19 20 21 22 23 24 25 26 27 28 29 30 31 32 33 34 35 36 37 38 39 40 41 42 43 44 45 46 47 48 49 50
000
ASUS43 KGLD 070959
RWRGLD

GOODLAND FORECAST AREA HOURLY WEATHER ROUNDUP
NATIONAL WEATHER SERVICE GOODLAND KS
300 AM MST SUN FEB 07 2016

...OFFICIAL OBSERVATIONS...

CITY           SKY/WX    TMP DP  RH WIND       PRES   REMARKS
GOODLAND KS    CLOUDY    29  22  75 W10       30.11F WCI  20
HILL CITY KS   CLOUDY    37  28  70 NW8       30.10R
IMPERIAL NEB   CLEAR     29  20  69 NW8       30.11S
MCCOOK NEB     PTCLDY    34  26  72 W16       30.08F
AKRON CO       PTCLDY    28  20  71 N16       30.13R WCI  16
BURLINGTON CO  CLOUDY    30  22  72 W6        30.14S
LIMON CO       CLOUDY    21  13  71 N6        30.16R
$$

...UNOFFICIAL OBSERVATIONS...

CITY           SKY/WX    TMP DP  RH WIND       PRES   REMARKS
COLBY KS       CLEAR     34  28  80 NW6       30.11S
GOVE KS          N/A     36  32  85 MISG        N/A
LENORA KS        N/A     36  32  85 MISG        N/A
NORTON KS      CLEAR     34  25  69 NW8       30.06
SHARON SPRINGS   N/A     34  25  70 N12         N/A
TRENTON NEB      N/A     31  32 100 MISG        N/A
KIT CARSON CO    N/A     36  25  65 MISG        N/A
YUMA CO          N/A     29  22  74 N7          N/A
$$




USA.gov is the U.S. government's official web portal to all federal, state and local government web resources and services.